Starlink 31585

operational
NORAD ID: 59608 Int'l Des: 2024-080 Owner: SPXS Country: US Constellation: starlink
LEOCIRCULAR

Starlink 31585について

説明を読み込み中...

リアルタイム位置

3D地球を読み込み中...

次回通過

高度履歴

Altitude vs Time

uPlot chart will show altitude changes over time

軌道要素

1 59608U 24080H 25258.48880934 .00002609 00000-0 10432-3 0 9998
2 59608 43.0016 303.3990 0001167 278.3125 81.7594 15.27567124 77798
Epoch: Sep 15, 2025 • Age: 11 hours

現在のステータス

高度 487.6 km
速度 7.62 km/s
衛星直下点 -21.89°S, 58.25°W
打ち上げ日 Apr 28, 2024
運用期間 1.3 years
タイプ internet

技術仕様

分類 Payload
質量 730.00 kg
乾燥質量 700.00 kg
総質量 730.00 kg
長さ 0.30 m
直径 4.10 m
スパン 29.00 m
形状 Box + pan
製造者 SPXS
バスタイプ Starlink V2M
フェーズステータス In Orbit
所有者/国 SPXS/US

大規模コンステレーション

Loading constellations...